Regional Weather Roundup
Issued by NWS

Home | Current Version | Previous Version | Text Only | Print | Product List | Glossary On
Versions: 1 2 3 4 5 6 7 8 9 10 11 12 13 14 15 16 17 18 19 20 21 22 23 24 25 26 27
000
ASUS44 KBMX 270710
RWRAL

ALABAMA REGIONAL WEATHER ROUNDUP
NATIONAL WEATHER SERVICE BIRMINGHAM AL
200 AM CDT FRI MAY 27 2016

NOTE: "FAIR" INDICATES FEW OR NO CLOUDS BELOW 12,000 FEET
WITH NO SIGNIFICANT WEATHER AND/OR OBSTRUCTIONS TO VISIBILITY.

THE REMARK "TC" DENOTES TEMPERATURE IN DEGREES CELSIUS.

ALZ001>011-014-016>018-020-270800-
NORTH ALABAMA

CITY           SKY/WX    TMP DP  RH WIND       PRES   REMARKS
MUSCLE SHOALS  CLOUDY    71  60  68 SE5       30.00S
HUNTSVILLE     CLEAR     69  60  73 SE9       30.00F
DECATUR        CLEAR     65  62  90 S10       30.00F
HALEYVILLE     FAIR      70  61  73 S5        30.03F
GADSDEN        CLEAR     66  63  90 CALM      30.04F
$$

ALZ012-013-022-023-030>036-040>044-270800-
WEST CENTRAL ALABAMA

CITY           SKY/WX    TMP DP  RH WIND       PRES   REMARKS
TUSCALOOSA     CLOUDY    70  66  87 S5        30.01S
$$

ALZ015-024>027-033>036-040>044-270800-
CENTRAL ALABAMA

CITY           SKY/WX    TMP DP  RH WIND       PRES   REMARKS
BIRMINGHAM     CLOUDY    75  63  66 S7        30.04F
MONTGOMERY     MOCLDY    72  65  78 CALM      30.03F
SHELBY CO ARPT CLOUDY    71  65  81 CALM      30.03F
MAXWELL AFB    CLEAR     70  65  85 SE3       30.02F
GREENVILLE     FAIR      70  65  84 CALM      30.03F
$$

ALZ019-021-028-029-037-038-045>048-270800-
EAST CENTRAL ALABAMA

CITY           SKY/WX    TMP DP  RH WIND       PRES   REMARKS
ANNISTON       PTCLDY    68  64  87 CALM      30.05F
ALEXANDER CITY CLEAR     67  67 100 CALM      30.06S
AUBURN         CLEAR    N/A N/A N/A S3        30.07F
$$

ALZ051>064-270800-
SOUTHWEST ALABAMA

CITY           SKY/WX    TMP DP  RH WIND       PRES   REMARKS
MOBILE         CLOUDY    72  72 100 S6        30.01F
BROOKLEY FIELD NOT AVBL
EVERGREEN      PTCLDY    66  64  93 CALM      30.02F
$$

ALZ049-050-065>069-270800-
SOUTHEAST ALABAMA

CITY           SKY/WX    TMP DP  RH WIND       PRES   REMARKS
DOTHAN         CLEAR     71  67  87 CALM      30.08F
OZARK          CLEAR     70  69  97 CALM      30.04F
TROY           MOCLDY    69  66  90 CALM      30.05F
EUFAULA        FAIR      67  65  93 CALM      30.04F
$$




USA.gov is the U.S. government's official web portal to all federal, state and local government web resources and services.